Weather History for Big Bear City, CA

Change the Weather History Date:

Saturday, February 9, 2013

  Actual Average (KBUO) Record (KBUO)
Temperature  
Mean Temperature 20 °F -  
Max Temperature 32 °F 56 °F 68 °F (2000)
Min Temperature 8 °F 40 °F 32 °F (2001)
Degree Days  
Heating Degree Days 45    
Moisture  
Dew Point 15 °F    
Average Humidity 75    
Maximum Humidity 86    
Minimum Humidity 51    
Precipitation  
Precipitation 0.00 in - - ()
Sea Level Pressure  
Sea Level Pressure 29.85 in    
Wind  
Wind Speed 7 mph (WSW)    
Max Wind Speed 12 mph    
Max Gust Speed 17 mph    
Visibility 9 miles    
Events Snow    
Averages and records for this station are not official NWS values.
T = Trace of Precipitation, MM = Missing Value Source: NWS Daily Summary

Daily Weather History Graph

Daily Weather History Graph

Search for Another Location

Airport:

Trip Planner

Search our weather history database for the weather conditions in past years. The results will help you decide how hot, cold, wet, or windy it might be!

Date:

Astronomy

Feb. 09, 2013 Rise Set
Actual Time 6:37 AM PST 5:25 PM PST
Civil Twilight 6:12 AM PST 5:51 PM PST
Nautical Twilight 5:42 AM PST 6:21 PM PST
Astronomical Twilight 5:13 AM PST 6:50 PM PST
Moon 5:53 AM PST (2/9) 5:11 PM PST (2/9)
Length of Visible Light 11h 39m
Length of Day
10h 47m
Waning Crescent, 0% of the Moon is Illuminated
Feb 9
Waning Crescent
Feb 9
New
Feb 17
First Quarter
Feb 25
Full
Mar 4
Last Quarter

Hourly Weather History & Observations

Time (PST) Temp. Windchill Dew Point Humidity Pressure Visibility Wind Dir Wind Speed Gust Speed Precip Events Conditions
12:15 AM 19.4 °F 10.4 °F 15.8 °F 86% 29.73 in 10.0 mi WSW 6.9 mph - N/A   Overcast
12:35 AM 21.2 °F 10.9 °F 15.8 °F 80% 29.74 in 10.0 mi WSW 9.2 mph - N/A   Overcast
12:55 AM 21.2 °F 13.6 °F 17.6 °F 86% 29.74 in 4.0 mi SW 5.8 mph - N/A Snow Light Snow
1:15 AM 21.2 °F 12.6 °F 17.6 °F 86% 29.74 in 7.0 mi SW 6.9 mph - N/A Snow Light Snow
1:35 AM 21.2 °F 12.6 °F 15.8 °F 80% 29.74 in 10.0 mi SW 6.9 mph - N/A Snow Light Snow
1:55 AM 21.2 °F 12.6 °F 15.8 °F 80% 29.74 in 10.0 mi SSW 6.9 mph - N/A Snow Light Snow
2:15 AM 19.4 °F 10.4 °F 15.8 °F 86% 29.74 in 10.0 mi SW 6.9 mph - N/A   Mostly Cloudy
2:35 AM 19.4 °F 10.4 °F 15.8 °F 86% 29.74 in 10.0 mi SSW 6.9 mph - N/A   Overcast
2:55 AM 19.4 °F 12.8 °F 15.8 °F 86% 29.75 in 10.0 mi SW 4.6 mph - N/A   Overcast
3:15 AM 19.4 °F 11.5 °F 15.8 °F 86% 29.75 in 10.0 mi WSW 5.8 mph - N/A   Overcast
3:35 AM 19.4 °F 10.4 °F 15.8 °F 86% 29.75 in 10.0 mi SSW 6.9 mph - N/A   Overcast
3:55 AM 19.4 °F 10.4 °F 15.8 °F 86% 29.75 in 10.0 mi WSW 6.9 mph - N/A   Overcast
4:15 AM 19.4 °F 12.8 °F 15.8 °F 86% 29.76 in 10.0 mi SSW 4.6 mph - N/A   Overcast
4:35 AM 19.4 °F 12.8 °F 15.8 °F 86% 29.76 in 10.0 mi SW 4.6 mph - N/A   Mostly Cloudy
4:55 AM 19.4 °F 11.5 °F 14.0 °F 80% 29.76 in 10.0 mi SW 5.8 mph - N/A   Mostly Cloudy
5:15 AM 19.4 °F 8.6 °F 14.0 °F 80% 29.77 in 10.0 mi SW 9.2 mph - N/A   Mostly Cloudy
5:35 AM 19.4 °F 11.5 °F 14.0 °F 80% 29.76 in 10.0 mi SW 5.8 mph - N/A   Scattered Clouds
5:55 AM 19.4 °F 9.5 °F 15.8 °F 86% 29.78 in 10.0 mi SW 8.1 mph - N/A   Scattered Clouds
6:15 AM 19.4 °F 8.6 °F 15.8 °F 86% 29.78 in 10.0 mi WSW 9.2 mph - N/A   Mostly Cloudy
6:35 AM 19.4 °F 8.6 °F 14.0 °F 80% 29.78 in 10.0 mi WSW 9.2 mph 17.3 mph N/A   Mostly Cloudy
6:55 AM 19.4 °F 10.4 °F 14.0 °F 80% 29.79 in 10.0 mi WSW 6.9 mph - N/A   Scattered Clouds
7:15 AM 19.4 °F 7.2 °F 14.0 °F 80% 29.80 in 10.0 mi SW 11.5 mph 16.1 mph N/A   Scattered Clouds
7:35 AM 21.2 °F 11.7 °F 15.8 °F 80% 29.81 in 10.0 mi WSW 8.1 mph - N/A   Scattered Clouds
7:55 AM 21.2 °F 10.9 °F 15.8 °F 80% 29.81 in 10.0 mi West 9.2 mph - N/A   Scattered Clouds
8:15 AM 21.2 °F 10.1 °F 17.6 °F 86% 29.82 in 10.0 mi WSW 10.4 mph 16.1 mph N/A   Mostly Cloudy
8:35 AM 21.2 °F 11.7 °F 17.6 °F 86% 29.83 in 10.0 mi WSW 8.1 mph - N/A   Overcast
8:55 AM 21.2 °F 13.6 °F 17.6 °F 86% 29.84 in 10.0 mi WSW 5.8 mph - N/A   Overcast
9:15 AM 23.0 °F 12.4 °F 17.6 °F 80% 29.85 in 10.0 mi WSW 10.4 mph - N/A   Overcast
9:35 AM 23.0 °F 13.1 °F 17.6 °F 80% 29.86 in 10.0 mi West 9.2 mph 16.1 mph N/A   Overcast
9:55 AM 26.6 °F 20.0 °F 17.6 °F 69% 29.86 in 10.0 mi SSW 5.8 mph - N/A   Overcast
10:15 AM 26.6 °F 18.2 °F 17.6 °F 69% 29.86 in 10.0 mi SSW 8.1 mph - N/A   Overcast
10:35 AM 26.6 °F 19.1 °F 15.8 °F 64% 29.86 in 10.0 mi WSW 6.9 mph - N/A   Mostly Cloudy
10:55 AM 28.4 °F 22.2 °F 15.8 °F 59% 29.87 in 10.0 mi SW 5.8 mph - N/A   Scattered Clouds
11:15 AM 28.4 °F 19.1 °F 15.8 °F 59% 29.87 in 10.0 mi West 10.4 mph - N/A   Scattered Clouds
11:35 AM 28.4 °F 18.5 °F 15.8 °F 59% 29.87 in 10.0 mi West 11.5 mph - N/A   Clear
11:55 AM 28.4 °F 21.2 °F 14.0 °F 55% 29.87 in 10.0 mi WSW 6.9 mph - N/A   Clear
12:15 PM 30.2 °F 21.3 °F 14.0 °F 51% 29.87 in 10.0 mi West 10.4 mph - N/A   Clear
12:35 PM 30.2 °F 20.8 °F 15.8 °F 55% 29.87 in 10.0 mi West 11.5 mph - N/A   Clear
12:55 PM 30.2 °F 20.8 °F 17.6 °F 60% 29.87 in 10.0 mi West 11.5 mph - N/A   Clear
1:15 PM 30.2 °F 21.9 °F 15.8 °F 55% 29.87 in 10.0 mi WSW 9.2 mph - N/A   Clear
1:35 PM 30.2 °F 20.8 °F 17.6 °F 60% 29.87 in 10.0 mi West 11.5 mph - N/A   Clear
1:55 PM 30.2 °F 22.6 °F 17.6 °F 60% 29.87 in 10.0 mi WSW 8.1 mph - N/A   Clear
2:15 PM 32.0 °F 26.4 °F 17.6 °F 55% 29.88 in 10.0 mi SW 5.8 mph - N/A   Clear
2:35 PM 32.0 °F 24.2 °F 17.6 °F 55% 29.88 in 10.0 mi West 9.2 mph - N/A   Clear
2:55 PM 32.0 °F 23.0 °F 19.4 °F 60% 29.88 in 10.0 mi West 11.5 mph - N/A   Clear
3:15 PM 30.2 °F 22.6 °F 19.4 °F 64% 29.89 in 10.0 mi West 8.1 mph - N/A   Clear
3:35 PM 30.2 °F 24.3 °F 19.4 °F 64% 29.89 in 10.0 mi WSW 5.8 mph - N/A   Clear
3:55 PM 28.4 °F 18.5 °F 21.2 °F 74% 29.90 in 10.0 mi West 11.5 mph 17.3 mph N/A   Clear
4:15 PM 28.4 °F 23.3 °F 19.4 °F 69% 29.90 in 10.0 mi SW 4.6 mph - N/A   Clear
4:35 PM 28.4 °F 23.3 °F 17.6 °F 64% 29.90 in 10.0 mi West 4.6 mph - N/A   Clear
4:55 PM 28.4 °F 22.2 °F 14.0 °F 55% 29.90 in 10.0 mi West 5.8 mph - N/A   Clear
5:35 PM 26.6 °F 22.6 °F 15.8 °F 64% 29.91 in 10.0 mi SSW 3.5 mph - N/A   Clear
5:55 PM 24.8 °F 20.5 °F 17.6 °F 74% 29.91 in 10.0 mi SSW 3.5 mph - N/A   Clear
6:15 PM 23.0 °F - 17.6 °F 80% 29.91 in 10.0 mi Calm Calm - N/A   Clear
6:35 PM 23.0 °F - 15.8 °F 74% 29.92 in 10.0 mi Calm Calm - N/A   Clear
6:55 PM 21.2 °F - 14.0 °F 74% 29.92 in 10.0 mi Calm Calm - N/A   Clear
7:15 PM 19.4 °F - 14.0 °F 80% 29.92 in 10.0 mi Calm Calm - N/A   Clear
7:35 PM 17.6 °F - 12.2 °F 79% 29.93 in 10.0 mi Calm Calm - N/A   Clear
7:55 PM 17.6 °F - 14.0 °F 86% 29.94 in 10.0 mi Calm Calm - N/A   Clear
8:15 PM 17.6 °F - 12.2 °F 79% 29.94 in 7.0 mi Calm Calm - N/A   Clear
8:35 PM 14.0 °F 6.5 °F 10.4 °F 86% 29.94 in 7.0 mi SW 4.6 mph - N/A   Clear
8:55 PM 15.8 °F 8.6 °F 10.4 °F 79% 29.95 in 7.0 mi West 4.6 mph - N/A   Clear
9:15 PM 14.0 °F 6.5 °F 10.4 °F 86% 29.95 in 7.0 mi SW 4.6 mph - N/A   Clear
9:35 PM 14.0 °F - 10.4 °F 86% 29.95 in 2.0 mi Calm Calm - N/A   Clear
9:55 PM 14.0 °F 6.5 °F 8.6 °F 79% 29.95 in 5.0 mi WSW 4.6 mph - N/A   Haze
10:15 PM 12.2 °F - 8.6 °F 85% 29.95 in 3.0 mi Calm Calm - N/A   Scattered Clouds
10:35 PM 10.4 °F - 6.8 °F 85% 29.95 in 1.2 mi Calm Calm - N/A   Mostly Cloudy
10:55 PM 10.4 °F - 6.8 °F 85% 29.95 in 2.5 mi Calm Calm - N/A   Mostly Cloudy
11:15 PM 10.4 °F - 5.0 °F 79% 29.95 in 1.0 mi Calm Calm - N/A   Mostly Cloudy
11:35 PM 8.6 °F - 5.0 °F 85% 29.96 in 4.0 mi Calm Calm - N/A   Scattered Clouds
11:55 PM 10.4 °F - 5.0 °F 79% 29.96 in 2.0 mi Calm Calm - N/A   Haze